Location: Saluda
(35.2377°N, 82.3468°W)
Time: 16:05:05
(UTC+00:00)

Explorer 11/Cluster Stage 4 - Pass Details

Date: 06 October 2022
Orbit: 466 x 1247 km, 28.8° (Epoch: 08 December)

Event Time Altitude Azimuth Distance (km) Brightness Sun altitude
Rises 18:22:13 0° 265° (W) 4,177 10.6 46.7°
Reaches altitude 10° 18:25:19 10° 261° (W) 3,181 10.2 46.4°
Maximum altitude 18:32:59 49° 189° (S) 1,425 10.1 45.7°
Drops below altitude 10° 18:39:40 10° 117° (ESE) 2,780 9.5 45.1°
Sets 18:42:13 0° 111° (ESE) 3,616 9.9 44.8°
